Regional Weather Roundup
Issued by NWS

Home | Current Version | Previous Version | Graphics & Text | Print | Product List | Glossary On
Versions: 1 2 3 4 5 6 7 8 9 10 11 12 13 14 15 16 17 18 19 20 21 22 23 24 25 26 27 28 29 30 31 32 33 34 35 36 37 38 39 40 41 42 43 44 45 46 47 48 49 50
000
ASUS45 KPSR 240410
RWRAZ

ARIZONA HOURLY REGIONAL WEATHER ROUNDUP
NATIONAL WEATHER SERVICE PHOENIX AZ
900 PM MST SAT MAY 23 2015

NOTE: FAIR INDICATES FEW OR NO CLOUDS BELOW 12,000 FEET WITH NO
SIGNIFICANT WEATHER AND/OR OBSTRUCTIONS TO VISIBILITY.

AZZ001>003-036-240500-
NORTHWEST ARIZONA

CITY           SKY/WX    TMP DP  RH WIND       PRES   REMARKS
BULLHEAD CITY  CLEAR     81  39  22 S21G28    29.80S
KINGMAN        MOCLDY    66  37  34 SW13      29.93R
$$

AZZ004>008-015-016-018-240500-
NORTH CENTRAL ARIZONA

CITY           SKY/WX    TMP DP  RH WIND       PRES   REMARKS
GRAND CANYON   CLOUDY    46  42  86 SW6       30.05R
WILLIAMS       MOCLDY    48  34  57 SW9       30.13R
PRESCOTT       CLEAR     56  32  40 SW12      30.02S
FLAGSTAFF      MOCLDY    46  34  62 SW6       30.08R
PAYSON         PTCLDY    55  34  44 W5        30.06S
PAGE           LGT RAIN  54  51  90 SE6       29.96R
$$

AZZ009>014-017-240500-
NORTHEAST ARIZONA

CITY           SKY/WX    TMP DP  RH WIND       PRES   REMARKS
WINSLOW        MOCLDY    52  35  52 W6        30.01R
SAINT JOHNS    CLOUDY    57  28  33 W9        30.02R
WINDOW ROCK    CLOUDY    46  36  68 N8        30.06S
SHOW LOW       CLEAR     48  28  46 SW9       30.08R
$$

AZZ023-240500-
GREATER PHOENIX AREA

CITY           SKY/WX    TMP DP  RH WIND       PRES   REMARKS
PHOENIX        CLEAR     79  36  21 W8        29.88R
LUKE AFB       CLEAR     76  38  25 SW6       29.87S
DEER VALLEY    CLEAR     74  36  25 S3        29.89
SCOTTSDALE     CLEAR     75  35  23 CALM      29.91S
MESA-GATEWAY   PTCLDY    73  37  27 NW7       29.92R
CHANDLER       CLEAR     75  36  23 W7        29.90R
$$

AZZ027-028-240500-
SOUTHWEST MARICOPA COUNTY AND PINAL COUNTY

CITY           SKY/WX    TMP DP  RH WIND       PRES   REMARKS
CASA GRANDE    CLEAR     73  36  25 W6        29.90R
GILA BEND      FAIR      73  37  26 W3        29.88S
$$

AZZ503-504-507>509-240500-
SOUTHEAST ARIZONA

CITY           SKY/WX    TMP DP  RH WIND       PRES   REMARKS
TUCSON         CLEAR     72  31  22 NW6       29.97R
DAVIS-MONTHAN  CLEAR     69  31  24 NW6       29.95R
NOGALES        CLEAR     64  28  25 SW3       30.02R
SIERRA VISTA   CLEAR     59  25  27 W8        30.05R
DOUGLAS        CLEAR     61  24  24 NW7       30.01R
SAFFORD        CLEAR     67  28  23 NW13      29.93R
$$

AZZ020-021-025-026-031-240500-
SOUTHWEST ARIZONA

CITY           SKY/WX    TMP DP  RH WIND       PRES   REMARKS
YUMA           CLEAR     75  48  38 S14       29.88R
$$

CAZ031-033-041-043-047-048-061-240500-
SOUTHERN CALIFORNIA

CITY           SKY/WX    TMP DP  RH WIND       PRES   REMARKS
DOWNTOWN L.A.  CLOUDY    62  52  69 CALM      30.03R
L.A. AIRPORT   MOCLDY    60  53  77 W12       30.04S
SAN DIEGO      MOCLDY    64  54  68 W9        30.07S
BURBANK        CLOUDY    61  49  64 SE8       30.03R
ONTARIO        CLOUDY    60  52  74 W12       30.03R
RIVERSIDE      CLOUDY    62  51  67 W5        30.02R
PALM SPRINGS   CLEAR     74  45  35 NW15      29.89R
EL CENTRO NAS  CLEAR     71  47  42 W22       29.91R
IMPERIAL       LGT RAIN  70  48  45 W22G28    29.88R
BLYTHE         CLEAR     78  41  26 SW10      29.85R
NEEDLES        CLEAR     80  37  21 S15G24    29.82R
$$

NVZ020-UTZ003-240500-
SOUTHERN NEVADA-UTAH

CITY           SKY/WX    TMP DP  RH WIND       PRES   REMARKS
LAS VEGAS      MOCLDY    76  41  28 W3        29.78R
SALT LAKE CITY PTCLDY    55  46  71 W5        29.94R
$$

NMZ009-TXZ055-240500-
NEW MEXICO-WEST TEXAS

CITY           SKY/WX    TMP DP  RH WIND       PRES   REMARKS
ALBUQUERQUE    MOCLDY    65  24  21 N12       29.96R
EL PASO        CLEAR     74  15  10 NW14      29.90R
$$


........................KEY........................
SKY/WX - SKY CONDITION/WEATHER
TMP    - TEMPERATURE IN FAHRENHEIT
DP     - DEW POINT IN FAHRENHEIT
RH     - RELATIVE HUMIDITY IN PERCENT
WIND   - DIRECTION AND SPEED IN MILES PER HOUR (MPH)
VRB    - VARIABLE WIND DIRECTION
PRES   - MEAN SEA LEVEL PRESSURE IN INCHES OF MERCURY
         F - FALLING PRESSURE   R - RISING PRESSURE
         S - STEADY PRESSURE
VSB    - VISIBILITY IN MILES
HX     - HEAT INDEX IN FAHRENHEIT
WCI    - WIND CHILL INDEX IN FAHRENHEIT
TC     - TEMPERATURE IN CELSIUS WHICH IS ALSO KNOWN AS
         TEMPERATURE IN CENTIGRADE
AFB    - AIR FORCE BASE
         LUKE AFB IS LUKE AIR FORCE BASE
         DAVIS-MONTHAN IS DAVIS-MONTHAN AIR FORCE BASE
NAS    - NAVAL AIR STATION
         EL CENTRO NAS IS EL CENTRO NAVAL AIR STATION
N/A    - NOT AVAILABLE




USA.gov is the U.S. government's official web portal to all federal, state and local government web resources and services.